Tracking 19794 objects as of 22-Jul-2019
HD Live streaming from Space Station
objects crossing your sky now

FENGYUN 1C DEB

Track FENGYUN 1C DEB now!
10-day predictions


NORAD ID: 35150
Int'l Code: 1999-025DME
Perigee: 627.9 km
Apogee: 820.1 km
Inclination: 99.2 °
Period: 99.1 minutes
Semi major axis: 7095 km
RCS: 0.0073 m2 (small)
Launch date: May 10, 1999
Source: People's Republic of China (PRC)
Launch site: Taiyaun Space Center, China (TSC)

Note: This is SATELLITE DEBRIS
aabbcc
Your satellite tracking list
Your tracking list is empty




NASA's NSSDC Master Catalog

Two Line Element Set (TLE):
1 35150U 99025DME 14341.60995891 +.00004999 +00000-0 +10930-2 0  9995
2 35150 099.2457 278.8474 0135476 064.8600 303.3352 14.52693481371375
Source of the keplerian elements: AFSPC